CZ-4 DEB

Satellite information

Favourite Embed

Satellite Type and Status

DEBRISIN ORBIT

Key statistics

Satellite CZ-4 DEB at a glance.

Uptime

12886

Days in orbit

Revolutions

≈ 14.4

Per day

Orbit

SSO

Sun Synchronous Orbit

Inclination

98.5

Latest

Satellite identification and parameters

Extended collection of information and parameters for CZ-4 DEB.

Object identification

Identified? True

Debris? True

Object name: CZ-4 DEB

International designator: 1990-081BV

Object number (NORAD): 20912

Object ID (CCSDS): 20912

Country: PEOPLES REPUBLIC OF CHINA (PRC)

Current information (Y/N): Y

RCS size: SMALL

Orbital parameters

Period: 100.269 minutes

Inclination: 98.5378 deg

SMA: 7149.428 km

Apoapsis: 781.241 km

Periapsis: 761.344 km

RAAN: 343.9722 deg

Eccentricy: 0.00139154

Argument of periapsis: 100.4592 deg

Mean anomaly: 19.1397 deg

Mean motion: 14.36136959 rev/day

Mean motion (dot): 0.00002715 rev/day2

B* drag term: 0.00094563301 1/REarth

Two-line elements (TLE)

Creation date: Dec. 14, 2025, 3:07 a.m.

Reference frame: TEME

Reference center: EARTH

Epoch: Dec. 13, 2025, 12:48 p.m. UTC

TLE line 0: 0 CZ-4 DEB

TLE line 1: 1 20912U 90081BV 25347.53382175 .00002715 00000-0 94563-3 0 9992

TLE line 2: 2 20912 98.5378 343.9722 0013915 100.4592 19.1397 14.36136959822904

Live tracking on map

Real-time ground track for satellite CZ-4 DEB.

In-orbit conjunctions

A list of the most updated potential collisions computed for object CZ-4 DEB.

Target Orbit TCA Probability of collision Miss distance Type
SL-8 R/B LEO 2025-09-03 03:54:01 0.0005032071 879.0 (m) ROCKET BODY
COSMOS 2251 DEB LEO 2025-06-24 21:48:13 0.0001732978 134.0 (m) DEBRIS
COSMOS 1486 LEO 2024-10-12 05:56:22 0.0004539119 202.0 (m) PAYLOAD

Associated space launch

Chinese polar orbiting meteorological satellite

CZ-4 DEB was lifted into orbit during the mission ‘Long March 4A | Feng Yun 1B’, on board a Long March 4A space rocket.

The launch took place on Sept. 3, 1990, 12:53 a.m. from Launch Complex 7.

For more information about the launch, click the button.

Launch to space Long March 4A | Feng Yun 1B
Long March 4A | Feng Yun 1B

Agency: N/A

Status: Launch Successful

Launch date: Sept. 3, 1990, 12:53 a.m. UTC

Rocket: Long March 4A

Launch pad: Launch Complex 7

Location: Taiyuan Satellite Launch Center, People's Republic of China

...

Latest news about this satellite

There are no fresh news available about this satellite. Check back as we update our databases every day.


Newsletter sign-up

Weekly statistics, charts and insights to help you stay on top of the space industry.